{"data":{"norad_id":65565,"epoch":"2026-05-25T02:42:05.876928Z","epoch_age_seconds":62435,"freshness":"FRESH","line1":"1 65565U 25203A   26145.11256802  .00000087  00000+0  67146-4 0  9994","line2":"2 65565  81.3048  32.1433 0004932 255.8215 104.2394 13.84340594 35502","mean_motion":13.84340594,"eccentricity":0.0004932,"inclination_deg":81.3048,"raan_deg":32.1433,"arg_perigee_deg":255.8215,"mean_anomaly_deg":104.2394,"bstar":6.7146e-5,"rev_number":3550,"period_min":104.02064392544,"perigee_km":944.9179276967,"apogee_km":952.14495344648,"semimajor_km":7326.6684405716,"source":"CELESTRAK","updated_at":"2026-05-25T13:38:25.166007Z"}}